星链-31532 (STARLINK-31532 )

导读

STARLINK-31532是美国太空探索技术公司(SpaceX)发射的星链(Starlink)互联网通信卫星,于2024年3月31日发射升空,是星链低轨卫星互联网星座组网部署任务中的一员,该卫星将为全球提供高速低延迟的宽带互联网接入服务,也丰富了美国近地轨道卫星资源,助力星链星座规模持续扩张。

基本信息
目录编号:
59349
目录名称:
STARLINK-31532
国际标识:
2024-060B
轨道中心:
EARTH
卫星名称:
星链-31532
卫星全名:
星链-31532 (STARLINK-31532 )
卫星状态:
在轨 (已飞行809 天)
发射日期:
2024-03-31 UTC
国别 :
美国 (US)
星等 :
--
轨道信息
数据来源 国际轨道数据
星历时间: 2026-06-16T18:17:19+0800
1天前
查看轨道信息
半长轴: 6861.195km
偏心率: 0.0002028
轨道倾角: 43.019°
近地点辐角 267.889°
升交点赤经 62.236°
平近点角 92.172°
近地点: 481.666km
远地点: 484.45km
周期: 94.267分钟
每日圈数: 15.275771
详细信息
固有亮度:
5
最大亮度:
0.3
卫星平台:
Starlink v2.0 mini
覆盖范围:
全球
运营商:
太空探索技术公司
运营商所在国:
美国
制造商(研发单位):
太空探索技术公司
制造商所在国:
美国
使用方式:
暂无
卫星简介
星链(Starlink)计划是由太空探索技术公司(SpaceX)提出的一个巨型低轨卫星互联网星座项目,计划在2019年至2024年间在太空搭建由约1.2万颗卫星组成的“星链”网络,其中1584颗将部署在地球上空550千米处的近地轨道,并从2020年开始工作。该卫星仍在工作。
2D轨道图
3D轨道图
轨道高度分析图
轨道倾角分析图
轨道综合分析图
查看轨道综合分析图